Regional Weather Roundup
Issued by NWS

Home | Current Version | Previous Version | Text Only | Print | Product List | Glossary Off
Versions: 1 2 3 4 5 6 7 8 9 10 11 12 13 14 15 16 17 18 19 20 21 22 23 24 25 26 27 28 29 30 31 32 33 34 35 36 37 38 39 40 41 42 43 44 45 46 47 48 49 50

000
ASUS43 KLOT 222109
RWRIL

ILLINOIS REGIONAL WEATHER ROUNDUP
NATIONAL WEATHER SERVICE CHICAGO/ROMEOVILLE IL
400 PM CDT SAT JUL 22 2017

NOTE: "FAIR" INDICATES FEW OR NO CLOUDS BELOW 12,000 FEET WITH NO
SIGNIFICANT WEATHER AND/OR OBSTRUCTIONS TO VISIBILITY.

* THESE STATIONS ARE NOT UNDER NWS QUALITY CONTROL. THEY ALSO MAY NOT
  REPORT WEATHER SUCH AS PRECIPITATION OR FOG.

ILZ001-002-007-009-015-016-024-222200-
NORTHWEST ILLINOIS

CITY           SKY/WX    TMP DP  RH WIND       PRES   REMARKS
MOLINE         CLOUDY    85  73  67 NW6       29.80F HX  91
STERLING*      CLOUDY    82  74  76 W6        29.82F HX  88
SAVANNA*       MOSUNNY   82  73  76 SW5       29.82S HX  87
$$

ILZ003-004-008-010-011-017-018-222200-
NORTH CENTRAL ILLINOIS

CITY           SKY/WX    TMP DP  RH WIND       PRES   REMARKS
ROCKFORD       PTSUNNY   85  72  65 CALM      29.82F HX  91
FREEPORT*      PTSUNNY   82  73  74 CALM      29.84S HX  87
ROCHELLE*      PTSUNNY   83  72  70 W5        29.83F HX  88
DE KALB*       MOSUNNY   82  73  73 NW8       29.84S HX  88
PERU*          CLOUDY    77  70  78 W3        29.82S
$$

ILZ005-006-012>014-019>023-222200-
NORTHEAST ILLINOIS

CITY           SKY/WX    TMP DP  RH WIND       PRES   REMARKS
CHICAGO-OHARE  PTSUNNY   86  70  58 N8        29.80F HX  90
CHICAGO-MIDWAY PTSUNNY   86  70  58 NW8       29.80F HX  90
AURORA         MOSUNNY   83  73  72 NW7       29.82F HX  89
LANSING*       MOSUNNY   85  67  54 NW5       29.82S HX  88
JOLIET*        PTSUNNY   86  74  66 W3        29.82S HX  94
WAUKEGAN       MOSUNNY   80  74  81 E5        29.81F HX  85
DUPAGE AIRPORT MOSUNNY   84  73  69 N5        29.81F HX  90
WHEELING       PTSUNNY   83  72  69 N5        29.82F HX  88
MORRIS*        MOSUNNY   83  73  69 W6        29.81S HX  89
ROMEOVILLE*    PTSUNNY   85  70  60 W7        29.82S HX  89
NORTHERLY ISL    N/A     75  70  84 CALM        N/A
$$

LMZ740>746-222200-
SOUTHERN LAKE MICHIGAN

STATION/POSITION SKY/WX   TEMP    WIND        PRES    VSBY  WAVE
                          AIR SEA DIR/SP/G                  HT/PER
                          (F)     (DEG/KT/KT) (MB)    (MI)  (FT/S)
SOUTHERN BUOY              70 70  320/  8/ 10 1009.5          1/ 5
WILMETTE HARBOR            74 74  150/  6/  8   N/A           1
HARRISON CRIB              75     110/  6/  6   N/A
BURNHAM HARBOR             76                   N/A
CALUMET HARBOR             76      80/  6/  8 1009.4F
BURNS HARBOR               77      60/  5/  6 1010.5F
MICHIGAN CITY              77     220/  1/  1   N/A
MICHIGAN CITY 6N           75 77  150/  2/  4   N/A           1
ST. JOSEPH                 75 75  280/  4/  4 1009.6          1
$$

ILZ025>027-034>036-040-047-049-050-058-095>099-222200-
WEST-CENTRAL ILLINOIS

CITY           SKY/WX    TMP DP  RH WIND       PRES   REMARKS
QUINCY         MOSUNNY   97  75  49 W10       29.78F HX 109
GALESBURG*     CLOUDY    85  76  75 NW3       29.82F HX  95
MACOMB*        CLOUDY    89  77  67 NW6       29.82S HX 101
JACKSONVILLE*  MOSUNNY   92  76  59 S6        29.79F HX 103
PITTSFIELD*    MOSUNNY   95  77  55 SW9G16    29.80S HX 109
$$

ILZ028>032-037-038-041>044-048-051>054-059>061-222200-
CENTRAL ILLINOIS

CITY           SKY/WX    TMP DP  RH WIND       PRES   REMARKS
PONTIAC        CLOUDY    84  78  83 N5        29.83S HX  95
BLOOMINGTON    CLOUDY    85  76  74 W10       29.84S HX  94
DECATUR        PTSUNNY   92  74  55 W10       29.81F HX 101
PEORIA         CLOUDY    86  76  71 W7        29.81F HX  96
LACON*         CLOUDY    84  75  74 W3        29.81S HX  92
LINCOLN*       MOSUNNY   91  76  62 SW5       29.81S HX 103
SPRINGFIELD    MOSUNNY   93  79  63 W7        29.80F HX 110
TAYLORVILLE    PTSUNNY   90  77  66 SW3       29.81F HX 102
$$

ILZ033-039-045-046-055>057-062-063-222200-
EAST-CENTRAL ILLINOIS

CITY           SKY/WX    TMP DP  RH WIND       PRES   REMARKS
CHAMPAIGN      MOSUNNY   88  78  72 SW7       29.82F HX 101
RANTOUL*       CLOUDY    89  77  69 W9        29.82F HX 101
MATTOON        SUNNY     94  75  54 VRB7G17   29.81F HX 105
PARIS*         SUNNY     89  79  72 NW5       29.82F HX 104
$$

ILZ079-100>102-222200-
SOUTHWEST ILLINOIS

CITY           SKY/WX    TMP DP  RH WIND       PRES   REMARKS
ALTON          SUNNY     99  77  49 S13       29.78F HX 114
BELLEVILLE     SUNNY     99  74  45 SW18G26   29.77F HX 110
CAHOKIA*       SUNNY    102  72  37 S9G23     29.76F HX 112
SPARTA*        SUNNY     97  75  48 S13G20    29.82F HX 109
$$

ILZ064>066-069>071-074>076-080>082-084>086-088>090-092>094-222200-
SOUTH-CENTRAL ILLINOIS

CITY           SKY/WX    TMP DP  RH WIND       PRES   REMARKS
CARBONDALE     SUNNY     94  73  50 SW17G24   29.82F HX 103
CAIRO*         SUNNY     94  77  57 S13G18    29.85F HX 107
EFFINGHAM*     MOSUNNY   98  74  46 SW13G18   29.82S HX 109
MARION         SUNNY     95  72  46 SW14G24   29.84F HX 103
MT. VERNON     SUNNY     97  75  49 S22       29.80F HX 109
CENTRALIA*     SUNNY     97  75  49 S17G31    29.78F HX 109
SALEM*         SUNNY     97  74  46 SW18G25   29.79S HX 107
METROPOLIS*    SUNNY     94  76  56 S12       29.86F HX 107
$$

ILZ067-068-072-073-078-083-087-091-222200-
SOUTHEAST ILLINOIS

CITY           SKY/WX    TMP DP  RH WIND       PRES   REMARKS
LAWRENCEVILLE  SUNNY     96  75  50 SW16      29.81S HX 108
FLORA*         SUNNY     97  77  51 SW13G21   29.80S HX 112
FAIRFIELD*     SUNNY     95  74  51 S14G21    29.78F HX 106
HARRISBURG*    SUNNY     95  76  53 SW15G21   29.83F HX 107
ROBINSON*      SUNNY     93  74  54 SW9G21    29.81S HX 103
CARMI*         SUNNY     93  78  61 S18       29.81F HX 108
$$

ABBREVIATIONS USED IN REMARKS
   TC - TEMPERATURE IN CELSIUS
  WCI - WIND CHILL INDEX
   HX - HEAT INDEX
  VSB - VISIBILITY
$$




USA.gov is the U.S. government's official web portal to all federal, state and local government web resources and services.